Weather History for KAZO - August, 2013

Change the Weather History Date:

Saturday, August 3, 2013

  Actual Average Record
Temperature  
Mean Temperature 68 °F 72 °F  
Max Temperature 79 °F 82 °F 100 °F (1964)
Min Temperature 57 °F 62 °F 42 °F (1976)
Degree Days  
Heating Degree Days 0 0  
Month to date heating degree days 0 0  
Since 1 June heating degree days 56 53  
Since 1 July heating degree days 17 5  
Cooling Degree Days 3 7  
Month to date cooling degree days 8 21  
Year to date cooling degree days 468 447  
Since 1 June cooling degree days 388 406  
Growing Degree Days 18 (Base 50)    
Moisture  
Dew Point 56 °F    
Average Humidity 68    
Maximum Humidity 100    
Minimum Humidity 35    
Precipitation  
Precipitation 0.00 in 0.09 in 1.35 in (1970)
Month to date precipitation 0.23 0.27  
Year to date precipitation 25.12 19.99  
Sea Level Pressure  
Sea Level Pressure 30.01 in    
Wind  
Wind Speed 6 mph (NW)    
Max Wind Speed 18 mph    
Max Gust Speed 25 mph    
Visibility 7 miles    
Events Fog    
T = Trace of Precipitation, MM = Missing Value Source: NWS Daily Summary

Daily Weather History Graph

Daily Weather History Graph

Search for Another Location

Airport or City:

Trip Planner

Search our weather history database for the weather conditions in past years. The results will help you decide how hot, cold, wet, or windy it might be!

Date:

Astronomy

Aug. 03, 2013 Rise Set
Actual Time 6:37 AM EDT 8:58 PM EDT
Civil Twilight 6:05 AM EDT 9:30 PM EDT
Nautical Twilight 5:26 AM EDT 10:08 PM EDT
Astronomical Twilight 4:43 AM EDT 10:51 PM EDT
Moon 3:45 AM EDT 6:41 PM EDT
Length of Visible Light 15h 24m
Length of Day
14h 21m
Waning Crescent, 9% of the Moon is Illuminated
Aug 3
Waning Crescent
Aug 6
New
Aug 14
First Quarter
Aug 20
Full
Aug 28
Last Quarter

Hourly Weather History & Observations

Time (EDT) Temp. Dew Point Humidity Pressure Visibility Wind Dir Wind Speed Gust Speed Precip Events Conditions
12:53 AM 63.0 °F 62.1 °F 97% 29.96 in 5.0 mi South 4.6 mph - N/A   Clear
1:53 AM 64.9 °F 63.0 °F 93% 29.97 in 7.0 mi Calm Calm - N/A   Scattered Clouds
2:53 AM 64.9 °F 62.1 °F 90% 29.96 in 8.0 mi Calm Calm - N/A   Scattered Clouds
3:53 AM 63.0 °F 62.1 °F 97% 29.97 in 4.0 mi Calm Calm - N/A   Clear
4:16 AM 62.6 °F 60.8 °F 94% 29.97 in 1.8 mi Calm Calm - 0.01 in   Clear
4:26 AM 62.6 °F 60.8 °F 94% 29.97 in 0.5 mi Calm Calm - 0.01 in Fog Fog
4:34 AM 60.8 °F 60.8 °F 100% 29.97 in 0.2 mi Calm Calm - 0.01 in Fog Fog
4:53 AM 60.1 °F 59.0 °F 96% 29.97 in 0.2 mi Calm Calm - 0.01 in Fog Fog
5:12 AM 60.8 °F 57.2 °F 88% 29.98 in 0.5 mi Calm Calm - N/A Fog Fog
5:40 AM 59.0 °F 57.2 °F 94% 29.98 in 0.2 mi North 3.5 mph - N/A Fog Fog
5:53 AM 59.0 °F 57.9 °F 96% 29.98 in 0.2 mi Calm Calm - N/A Fog Fog
6:28 AM 57.2 °F 57.2 °F 100% 29.99 in 3.0 mi Calm Calm - N/A   Clear
6:53 AM 57.9 °F 57.0 °F 97% 29.99 in 3.0 mi Calm Calm - N/A   Clear
7:53 AM 62.1 °F 61.0 °F 96% 30.01 in 4.0 mi Calm Calm - N/A   Clear
8:53 AM 64.9 °F 62.1 °F 90% 30.02 in 9.0 mi North 3.5 mph - N/A   Clear
9:53 AM 71.1 °F 60.1 °F 68% 30.01 in 10.0 mi Variable 3.5 mph - N/A   Clear
10:53 AM 75.0 °F 57.0 °F 53% 30.01 in 10.0 mi NNW 4.6 mph - N/A   Partly Cloudy
11:53 AM 75.9 °F 55.9 °F 50% 30.03 in 10.0 mi NNW 8.1 mph - N/A   Scattered Clouds
12:53 PM 73.0 °F 54.0 °F 51% 30.04 in 10.0 mi WNW 9.2 mph - N/A   Scattered Clouds
1:53 PM 73.9 °F 53.1 °F 48% 30.04 in 10.0 mi NNW 8.1 mph - N/A   Scattered Clouds
2:53 PM 78.1 °F 48.9 °F 36% 30.04 in 10.0 mi WNW 13.8 mph 21.9 mph N/A   Scattered Clouds
3:53 PM 77.0 °F 48.0 °F 36% 30.04 in 10.0 mi West 12.7 mph - N/A   Partly Cloudy
4:53 PM 75.0 °F 54.0 °F 48% 30.04 in 10.0 mi NW 17.3 mph - N/A   Scattered Clouds
5:53 PM 73.9 °F 52.0 °F 46% 30.06 in 10.0 mi NW 17.3 mph 21.9 mph N/A   Partly Cloudy
6:53 PM 73.0 °F 51.1 °F 46% 30.05 in 10.0 mi WNW 12.7 mph - N/A   Partly Cloudy
7:53 PM 71.1 °F 50.0 °F 47% 30.05 in 10.0 mi NW 9.2 mph - N/A   Clear
8:53 PM 66.0 °F 51.1 °F 59% 30.06 in 10.0 mi NW 8.1 mph - N/A   Clear
9:53 PM 63.0 °F 52.0 °F 67% 30.07 in 10.0 mi NW 5.8 mph - N/A   Clear
10:53 PM 61.0 °F 52.0 °F 72% 30.09 in 10.0 mi WNW 4.6 mph - N/A   Clear
11:53 PM 60.1 °F 52.0 °F 75% 30.09 in 10.0 mi NW 3.5 mph - N/A   Clear